• In Hungary
  • List of Countries
  • For 7 days
  • Water Temperature
  • Satellite Maps
  • Weather Map
  • News
  • Weather Widgets
  • user-avatar
    Login

    Hourly Weather Massaua

    Today, 26 May, Saturday

    Time Temperature Precipitation Wind Pressure Humidity
    00:00 +38°C° 0 mm 3 mps 754 mmHg 36%
    01:00 +37°C° 0 mm 3 mps 753 mmHg 39%
    02:00 +36°C° 0 mm 2 mps 753 mmHg 42%
    03:00 +36°C° 0 mm 2 mps 753 mmHg 45%
    04:00 +35°C° 0 mm 2 mps 753 mmHg 44%
    05:00 +35°C° 0 mm 2 mps 753 mmHg 43%
    06:00 +35°C° 0 mm 2 mps 753 mmHg 42%
    07:00 +37°C° 0 mm 2 mps 754 mmHg 33%
    08:00 +39°C° 0 mm 2 mps 754 mmHg 24%
    09:00 +41°C° 0 mm 2 mps 754 mmHg 15%
    10:00 +43°C° 0 mm 3 mps 754 mmHg 14%
    11:00 +44°C° 0 mm 3 mps 754 mmHg 12%
    12:00 +45°C° 0 mm 3 mps 753 mmHg 10%
    13:00 +45°C° 0 mm 4 mps 753 mmHg 10%
    14:00 +47°C° 0 mm 4 mps 752 mmHg 10%
    15:00 +47°C° 0 mm 5 mps 752 mmHg 10%
    16:00 +45°C° 0 mm 4 mps 752 mmHg 12%
    17:00 +44°C° 0 mm 3 mps 752 mmHg 15%
    18:00 +42°C° 0 mm 3 mps 752 mmHg 17%
    19:00 +42°C° 0 mm 3 mps 752 mmHg 19%
    20:00 +40°C° 0 mm 2 mps 752 mmHg 22%
    21:00 +39°C° 0 mm 2 mps 753 mmHg 24%
    22:00 +39°C° 0 mm 2 mps 753 mmHg 22%
    23:00 +39°C° 0 mm 3 mps 753 mmHg 20%

    Tomorrow, 27 May, Sunday

    Time Temperature Precipitation Wind Pressure Humidity
    00:00 +38°C° 0 mm 3 mps 753 mmHg 18%
    01:00 +38°C° 0 mm 3 mps 753 mmHg 18%
    02:00 +37°C° 0 mm 3 mps 753 mmHg 18%
    03:00 +37°C° 0 mm 3 mps 752 mmHg 18%
    04:00 +36°C° 0 mm 2 mps 753 mmHg 22%
    05:00 +34°C° 0 mm 1 mps 753 mmHg 25%
    06:00 +33°C° 0 mm 1 mps 753 mmHg 29%
    07:00 +36°C° 0 mm 1 mps 754 mmHg 23%
    08:00 +39°C° 0 mm 1 mps 754 mmHg 18%
    09:00 +41°C° 0 mm 1 mps 754 mmHg 12%
    10:00 +43°C° 0 mm 1 mps 754 mmHg 11%
    11:00 +45°C° 0 mm 2 mps 754 mmHg 10%
    12:00 +46°C° 0 mm 3 mps 754 mmHg 9%
    13:00 +47°C° 0 mm 4 mps 753 mmHg 10%
    14:00 +47°C° 0 mm 4 mps 753 mmHg 12%
    15:00 +47°C° 0 mm 5 mps 752 mmHg 13%
    16:00 +45°C° 0 mm 4 mps 752 mmHg 16%
    17:00 +43°C° 0 mm 3 mps 752 mmHg 19%
    18:00 +41°C° 0 mm 2 mps 752 mmHg 23%
    19:00 +41°C° 0 mm 2 mps 752 mmHg 25%
    20:00 +40°C° 0 mm 2 mps 753 mmHg 27%
    21:00 +39°C° 0 mm 1 mps 753 mmHg 29%
    22:00 +39°C° 0 mm 1 mps 753 mmHg 28%
    23:00 +39°C° 0 mm 1 mps 753 mmHg 28%

    Day after tomorrow, 28 May, Monday

    Time Temperature Precipitation Wind Pressure Humidity
    00:00 +39°C° 0 mm 1 mps 753 mmHg 27%
    01:00 +38°C° 0 mm 2 mps 753 mmHg 28%
    02:00 +38°C° 0 mm 2 mps 753 mmHg 29%
    03:00 +37°C° 0 mm 3 mps 753 mmHg 30%
    04:00 +37°C° 0 mm 2 mps 753 mmHg 32%
    05:00 +36°C° 0 mm 2 mps 753 mmHg 35%
    06:00 +35°C° 0 mm 1 mps 754 mmHg 37%
    07:00 +36°C° 0 mm 1 mps 754 mmHg 34%
    08:00 +39°C° 0 mm 1 mps 754 mmHg 30%
    09:00 +41°C° 0 mm 1 mps 755 mmHg 27%
    10:00 +42°C° 0 mm 1 mps 755 mmHg 25%
    11:00 +43°C° 0 mm 2 mps 754 mmHg 23%
    12:00 +45°C° 0 mm 2 mps 754 mmHg 21%
    13:00 +45°C° 0 mm 3 mps 754 mmHg 21%
    14:00 +45°C° 0 mm 4 mps 753 mmHg 20%
    15:00 +46°C° 0 mm 5 mps 753 mmHg 20%
    16:00 +44°C° 0.1 mm 4 mps 753 mmHg 24%
    17:00 +43°C° 0.1 mm 4 mps 753 mmHg 28%
    18:00 +42°C° 0.1 mm 3 mps 753 mmHg 32%
    19:00 +40°C° 0.1 mm 2 mps 753 mmHg 33%
    20:00 +40°C° 0.1 mm 2 mps 754 mmHg 33%
    21:00 +40°C° 0.1 mm 2 mps 754 mmHg 33%
    22:00 +40°C° 0 mm 1 mps 754 mmHg 33%
    23:00 +40°C° 0 mm 1 mps 754 mmHg 33%

    29 May, Tuesday

    Time Temperature Precipitation Wind Pressure Humidity
    00:00 +40°C° 0 mm 1 mps 754 mmHg 33%
    01:00 +39°C° 0 mm 2 mps 753 mmHg 34%
    02:00 +38°C° 0 mm 2 mps 753 mmHg 36%
    03:00 +37°C° 0 mm 3 mps 752 mmHg 37%
    04:00 +37°C° 0 mm 2 mps 753 mmHg 39%
    05:00 +36°C° 0 mm 2 mps 753 mmHg 41%
    06:00 +35°C° 0 mm 1 mps 753 mmHg 44%
    07:00 +36°C° 0 mm 1 mps 754 mmHg 40%
    08:00 +39°C° 0 mm 1 mps 754 mmHg 37%
    09:00 +40°C° 0 mm 2 mps 755 mmHg 33%
    10:00 +41°C° 0 mm 2 mps 755 mmHg 31%
    11:00 +42°C° 0 mm 2 mps 754 mmHg 29%
    12:00 +42°C° 0 mm 2 mps 754 mmHg 27%
    13:00 +43°C° 0 mm 2 mps 753 mmHg 25%
    14:00 +44°C° 0 mm 3 mps 753 mmHg 24%
    15:00 +44°C° 0 mm 3 mps 752 mmHg 23%
    16:00 +43°C° 0 mm 3 mps 752 mmHg 24%
    17:00 +43°C° 0 mm 4 mps 753 mmHg 26%
    18:00 +42°C° 0 mm 4 mps 753 mmHg 28%
    19:00 +40°C° 0 mm 3 mps 753 mmHg 32%
    20:00 +40°C° 0 mm 2 mps 754 mmHg 35%
    21:00 +39°C° 0 mm 1 mps 754 mmHg 39%
    22:00 +39°C° 0 mm 1 mps 754 mmHg 40%
    23:00 +39°C° 0 mm 1 mps 754 mmHg 40%

    30 May, Wednesday

    Time Temperature Precipitation Wind Pressure Humidity
    00:00 +39°C° 0 mm 2 mps 754 mmHg 40%
    01:00 +39°C° 0 mm 2 mps 754 mmHg 41%
    02:00 +38°C° 0 mm 2 mps 753 mmHg 42%
    03:00 +38°C° 0 mm 3 mps 753 mmHg 43%
    04:00 +37°C° 0 mm 2 mps 753 mmHg 46%
    05:00 +37°C° 0 mm 2 mps 753 mmHg 48%
    06:00 +36°C° 0 mm 2 mps 754 mmHg 51%
    07:00 +36°C° 0 mm 1 mps 754 mmHg 45%
    08:00 +39°C° 0 mm 1 mps 754 mmHg 39%
    09:00 +40°C° 0 mm 1 mps 755 mmHg 33%
    10:00 +42°C° 0 mm 2 mps 755 mmHg 29%
    11:00 +44°C° 0 mm 3 mps 754 mmHg 26%
    12:00 +45°C° 0 mm 3 mps 754 mmHg 22%
    13:00 +44°C° 0 mm 4 mps 754 mmHg 24%
    14:00 +45°C° 0 mm 5 mps 753 mmHg 26%
    15:00 +43°C° 0 mm 5 mps 753 mmHg 28%
    16:00 +43°C° 0 mm 5 mps 753 mmHg 31%
    17:00 +42°C° 0 mm 4 mps 753 mmHg 35%
    18:00 +40°C° 0 mm 3 mps 753 mmHg 38%
    19:00 +39°C° 0 mm 3 mps 754 mmHg 40%
    20:00 +39°C° 0 mm 3 mps 754 mmHg 42%
    21:00 +39°C° 0 mm 3 mps 755 mmHg 44%
    22:00 +39°C° 0 mm 3 mps 755 mmHg 44%
    23:00 +38°C° 0 mm 3 mps 755 mmHg 44%

    31 May, Thursday

    Time Temperature Precipitation Wind Pressure Humidity
    00:00 +38°C° 0 mm 3 mps 755 mmHg 44%
    01:00 +38°C° 0 mm 3 mps 754 mmHg 45%
    02:00 +37°C° 0 mm 4 mps 754 mmHg 45%
    03:00 +37°C° 0 mm 4 mps 754 mmHg 45%
    04:00 +37°C° 0 mm 3 mps 754 mmHg 44%
    05:00 +37°C° 0 mm 3 mps 755 mmHg 43%
    06:00 +36°C° 0 mm 2 mps 755 mmHg 42%
    07:00 +37°C° 0 mm 3 mps 755 mmHg 38%
    08:00 +38°C° 0 mm 3 mps 756 mmHg 35%
    09:00 +40°C° 0 mm 4 mps 756 mmHg 31%
    10:00 +41°C° 0 mm 4 mps 756 mmHg 29%
    11:00 +42°C° 0 mm 4 mps 756 mmHg 28%
    12:00 +43°C° 0 mm 5 mps 755 mmHg 26%
    13:00 +43°C° 0 mm 5 mps 755 mmHg 26%
    14:00 +45°C° 0 mm 5 mps 754 mmHg 26%
    15:00 +45°C° 0 mm 5 mps 754 mmHg 27%
    16:00 +43°C° 0 mm 5 mps 754 mmHg 29%
    17:00 +42°C° 0 mm 5 mps 754 mmHg 31%
    18:00 +41°C° 0 mm 4 mps 754 mmHg 34%
    19:00 +40°C° 0 mm 3 mps 754 mmHg 35%
    20:00 +39°C° 0 mm 2 mps 754 mmHg 36%
    21:00 +39°C° 0 mm 2 mps 755 mmHg 37%
    22:00 +38°C° 0 mm 2 mps 755 mmHg 37%
    23:00 +38°C° 0 mm 2 mps 755 mmHg 37%
    Show more